SCP
0 0 0 0 0 0 0 0 0 0 0 0 0 0 0 0 0 0 0 0 0 0 0 0 0 0 0 0 0 0 0 0 0 0 0 0 0 0 0 0 0 0 0 0 0 0 0 0 0
0 0 0 0 0 0 0 0 0 0 0 0 0 0 0 0 0 0 0 0 0 0 0 0 0 0 0 0 0 0 0 0 0 0 0 0 0 0 0 0 0 0 0 0 0 0 0 0 0
0 0 0 0 0 0 0 0 0 0 0 0 0 0 0 0 0 0 0 0 0 0 0 0 0 0 0 0 0 0 0 0 0 0 0 0 0 0 0 0 0 0 0 0 0 0 0 0 0
0 0 0 0 0 0 0 0 0 0 0 0 0 0 0 0 0 0 0 0 0 0 0 0 0 0 0 0 0 0 0 0 0 0 0 0 0 0 0 0 0 0 0 0 0 0 0 0 0
0 0 0 0 0 0 0 0 0 0 0 0 0 0 0 0 0 0 0 0 0 0 0 0 0 0 0 0 0 0 0 0 0 0 0 0 0 0 0 0 0 0 0 0 0 0 0 0 0
0 0 0 0 0 0 0 0 0 0 0 0 0 0 0 0 0 0 0 0 0 0 0 0 0 0 0 0 0 0 0 0 0 0 0 0 0 0 0 0 0 0 0 0 0 0 0 0 0
0 0 0 0 0 0 0 0 0 0 0 0 0 0 0 0 0 0 0 0 0 0 0 0 0 0 0 0 0 0 0 0 0 0 0 0 0 0 0 0 0 0 0 0 0 0 0 0 0
0 0 0 0 0 0 0 0 0 0 0 0 0 0 0 0 0 0 0 0 0 0 0 0 0 0 0 0 0 0 0 0 0 0 0 0 0 0 0 0 0 0 0 0 0 0 0 0 0
0 0 0 0 0 0 0 0 0 0 0 0 0 0 0 0 0 0 0 0 0 0 0 0 0 0 0 0 0 0 0 0 0 0 0 0 0 0 0 0 0 0 0 0 0 0 0 0 0
0 0 0 0 0 0 0 0 0 0 0 0 0 0 0 0 0 0 0 0 0 0 0 0 0 0 0 0 0 0 0 0 0 0 0 0 0 0 0 0 0 0 0 0 0 0 0 0 0
0 0 0 0 0 0 0 0 0 0 0 0 0 0 0 0 0 0 0 0 0 0 0 0 0 0 0 0 0 0 0 0 0 0 0 0 0 0 0 0 0 0 0 0 0 0 0 0 0
0 0 0 0 0 0 0 0 0 0 0 0 0 0 0 0 0 0 0 0 0 0 0 0 0 0 0 0 0 0 0 0 0 0 0 0 0 0 0 0 0 0 0 0 0 0 0 0 0
0 0 0 0 0 0 0 0 0 0 0 0 0 0 0 0 0 0 0 0 0 0 0 0 0 0 0 0 0 0 0 0 0 0 0 0 0 0 0 0 0 0 0 0 0 0 0 0 0
0 0 0 0 0 0 0 0 0 0 0 0 0 0 0 0 0 0 0 0 0 0 0 0 0 0 0 0 0 0 0 0 0 0 0 0 0 0 0 0 0 0 0 0 0 0 0 0 0
0 0 0 0 0 0 0 0 0 0 0 0 0 0 0 0 0 0 0 0 0 0 0 0 0 0 0 0 0 0 0 0 0 0 0 0 0 0 0 0 0 0 0 0 0 0 0 0 0
0 0 0 0 0 0 0 0 0 0 0 0 0 0 0 0 0 0 0 0 0 0 0 0 0 0 0 0 0 0 0 0 0 0 0 0 0 0 0 0 0 0 0 0 0 0 0 0 0
0 0 0 0 0 0 0 0 0 0 0 0 0 0 0 0 0 0 0 0 0 0 0 0 0 0 0 0 0 0 0 0 0 0 0 0 0 0 0 0 0 0 0 0 0 0 0 0 0
0 0 0 0 0 0 0 0 0 0 0 0 0 0 0 0 0 0 0 0 0 0 0 0 0 0 0 0 0 0 0 0 0 0 0 0 0 0 0 0 0 0 0 0 0 0 0 0 0
0 0 0 0 0 0 0 0 0 0 0 0 0 0 0 0 0 0 0 0 0 0 0 0 0 0 0 0 0 0 0 0 0 0 0 0 0 0 0 0 0 0 0 0 0 0 0 0 0
0 0 0 0 0 0 0 0 0 0 0 0 0 0 0 0 0 0 0 0 0 0 0 0 0 0 0 0 0 0 0 0 0 0 0 0 0 0 0 0 0 0 0 0 0 0 0 0 0
0 0 0 0 0 0 0 0 0 0 0 0 0 0 0 0 0 0 0 0 0 0 0 0 0 0 0 0 0 0 0 0 0 0 0 0 0 0 0 0 0 0 0 0 0 0 0 0 0
0 0 0 0 0 0 0 0 0 0 0 0 0 0 0 0 0 0 0 0 0 0 0 0 0 0 0 0 0 0 0 0 0 0 0 0 0 0 0 0 0 0 0 0 0 0 0 0 0
0 0 0 0 0 0 0 0 0 0 0 0 0 0 0 0 0 0 0 0 0 0 0 0 0 0 0 0 0 0 0 0 0 0 0 0 0 0 0 0 0 0 0 0 0 0 0 0 0
0 0 0 0 0 0 0 0 0 0 0 0 0 0 0 0 0 0 0 0 0 0 0 0 0 0 0 0 0 0 0 0 0 0 0 0 0 0 0 0 0 0 0 0 0 0 0 0 0
0 0 0 0 0 0 0 0 0 0 0 0 0 0 0 0 0 0 0 0 0 0 0 0 0 0 0 0 0 0 0 0 0 0 0 0 0 0 0 0 0 0 0 0 0 0 0 0 0
0 0 0 0 0 0 0 0 0 0 0 0 0 0 0 0 0 0 0 0 0 0 0 0 0 0 0 0 0 0 0 0 0 0 0 0 0 0 0 0 0 0 0 0 0 0 0 0 0
0 0 0 0 0 0 0 0 0 0 0 0 0 0 0 0 0 0 0 0 0 0 0 0 1 1 0 0 0 0 0 0 0 0 0 0 0 0 0 0 0 0 0 0 0 0 0 0 0
0 0 0 0 0 0 0 0 0 0 0 0 0 0 0 0 0 0 0 0 0 0 0 0 1 1 1 0 0 0 0 0 0 0 0 0 0 0 0 0 0 0 0 0 0 0 0 0 0
0 0 0 0 0 0 0 0 0 0 0 0 0 0 0 0 0 0 0 0 0 0 0 0 1 1 1 0 0 0 0 0 0 0 0 0 0 0 0 0 0 0 0 0 0 0 0 0 0
0 0 0 0 0 0 0 0 0 0 0 0 0 0 0 0 0 0 0 0 0 0 0 1 1 1 1 0 0 0 0 0 0 0 0 0 0 0 0 0 0 0 0 0 0 0 0 0 0
Wind_Speed
12 10 6 5 6 2 10 9 8 7 7 8 7 6 7 8 8 6 5 4 4 4 4 5 5 4 4 4 5 5 5 4 5 5 6 7 7 7 7 8 8 8 8 8 8 8 8 8 8
9 7 6 6 2 7 10 9 9 9 7 4 5 6 7 8 7 5 4 4 3 4 4 6 6 4 5 5 5 5 5 4 4 5 6 7 7 7 7 7 8 8 8 8 8 7 7 7 7
7 6 6 2 7 9 10 8 8 7 5 4 5 6 6 7 6 5 5 4 4 4 5 8 5 4 5 5 5 5 5 4 4 5 6 7 7 7 7 7 7 7 7 7 7 7 7 6 6
5 6 5 2 10 11 9 7 6 5 6 6 4 7 8 7 5 5 5 4 4 5 6 8 5 5 4 5 5 5 5 5 5 6 6 7 7 7 6 6 7 7 7 7 7 7 7 7 6
6 5 1 7 11 9 8 7 5 6 6 6 5 7 8 6 6 6 5 4 5 5 6 7 6 5 5 5 5 5 5 5 5 6 6 6 7 7 6 6 6 6 6 5 6 6 6 6 6
5 3 3 8 11 8 7 5 5 7 7 6 5 7 8 6 5 5 5 5 5 5 5 7 7 5 6 6 5 5 5 5 4 6 6 6 6 6 5 6 6 5 5 5 5 5 6 6 6
4 2 6 8 8 8 7 5 5 6 7 6 4 6 7 5 4 5 5 5 5 5 5 5 6 6 6 6 6 5 5 5 5 5 6 5 5 5 5 5 5 4 4 4 4 5 6 6 6
4 2 6 7 8 9 6 5 5 5 7 6 3 5 6 6 5 6 5 5 5 5 5 5 5 5 5 6 8 6 5 5 5 5 5 4 5 5 5 5 5 4 4 4 4 5 6 6 6
5 1 7 8 7 7 5 5 5 5 7 6 5 7 8 8 6 5 5 5 5 5 4 4 5 5 5 5 7 6 6 4 3 4 4 1 2 3 4 6 5 3 3 3 4 5 6 6 8
3 3 8 6 5 5 5 4 4 4 6 6 7 8 8 8 6 5 4 4 5 4 4 4 5 5 5 4 4 3 3 4 3 3 3 2 3 2 3 7 4 3 3 4 5 6 8 6 4
1 4 5 4 4 3 4 4 3 3 5 5 6 8 8 7 5 4 4 4 4 3 3 4 5 4 4 3 3 3 3 3 3 4 3 3 2 2 2 2 3 3 3 2 6 5 4 3 2
1 3 2 3 3 2 4 4 4 4 7 7 7 8 8 6 5 4 4 3 3 3 4 4 4 4 4 4 3 2 2 3 3 3 3 3 3 3 3 3 3 2 2 3 3 3 4 3 3
2 3 3 3 3 3 3 4 5 6 7 8 8 8 7 5 5 4 4 3 3 3 3 4 3 4 3 3 2 3 3 3 3 3 4 4 3 3 4 4 3 3 3 3 3 3 4 3 3
2 3 3 4 4 4 3 5 4 6 7 9 8 7 7 5 4 4 3 3 3 3 3 3 2 3 2 2 2 2 2 2 2 3 4 4 4 4 4 3 3 3 3 4 3 3 3 2 2
3 4 6 5 4 3 4 5 5 7 7 8 8 7 6 5 4 3 3 2 2 2 3 2 2 2 2 2 2 2 2 2 3 3 4 3 4 4 3 3 3 3 3 3 2 3 2 2 2
5 4 3 5 3 3 6 5 7 7 7 7 7 7 6 5 4 3 3 3 2 2 2 1 1 2 2 2 2 2 2 3 2 2 3 3 3 3 2 2 3 2 2 2 2 2 2 2 2
4 1 3 5 4 3 4 3 7 7 7 6 7 6 6 5 5 4 4 4 3 2 2 2 1 1 1 2 1 1 2 2 2 2 2 3 3 3 2 2 2 1 2 2 2 3 2 2 1
1 2 2 3 4 2 2 2 6 7 6 6 6 6 6 5 5 5 4 4 3 3 3 2 2 1 1 1 1 1 1 1 2 2 2 2 2 2 1 2 2 1 2 2 2 2 1 1 0
4 2 2 4 3 2 1 1 4 6 6 6 6 6 6 5 5 5 5 5 4 4 4 3 3 2 2 1 1 1 1 1 1 1 2 1 2 2 1 1 1 0 1 1 1 0 1 0 0
4 3 1 3 3 1 1 2 3 5 5 5 6 6 6 5 5 6 6 6 6 5 5 5 4 3 3 2 1 0 0 0 1 2 2 1 1 1 1 1 1 0 0 1 0 1 1 0 0
4 3 1 1 3 4 3 4 5 5 5 5 5 6 6 6 6 6 6 6 6 6 6 4 4 3 3 3 2 1 2 1 0 1 1 1 1 1 1 1 1 1 1 1 1 1 2 1 1
4 1 3 4 6 2 3 1 5 5 5 5 5 5 5 6 6 6 7 7 6 6 6 5 4 4 3 4 3 2 1 1 1 0 1 1 0 0 1 1 1 2 2 1 2 0 2 2 2
2 1 4 5 5 4 4 4 4 5 3 4 4 4 4 5 6 6 6 6 6 6 6 6 5 4 4 4 3 3 2 1 1 0 1 1 0 1 1 1 1 1 2 1 2 1 2 2 2
3 5 5 6 7 4 2 4 1 3 1 1 3 3 4 5 6 6 6 6 6 6 6 6 5 5 4 4 4 3 2 2 2 2 1 1 1 1 0 1 1 2 1 1 2 2 2 2 2
8 8 5 6 5 2 2 3 1 4 2 1 1 2 3 4 5 6 6 7 7 7 7 6 6 5 5 5 4 4 3 3 3 3 2 2 1 1 0 1 2 2 2 2 2 2 2 3 2
7 9 6 5 4 2 5 2 3 4 2 2 2 2 3 3 5 6 7 7 7 7 6 6 7 6 5 5 4 4 4 3 2 2 2 2 2 1 1 1 2 2 2 2 2 3 3 2 3
6 7 6 7 5 5 2 3 4 3 2 2 2 3 3 3 4 4 5 6 6 6 6 7 7 6 5 5 4 4 4 3 2 2 3 2 2 2 1 2 2 2 2 2 2 2 2 2 3
5 4 6 7 5 6 4 4 2 3 2 2 2 1 2 2 3 3 4 5 5 6 6 6 6 6 5 5 4 3 3 3 3 3 2 2 2 3 2 2 2 2 2 2 2 3 2 2 3
7 7 6 5 6 8 4 1 4 1 1 1 2 2 2 2 2 3 3 3 4 5 6 6 5 5 5 4 3 3 2 2 2 2 1 2 2 2 2 2 2 2 2 2 2 3 3 3 3
6 7 8 6 4 6 6 1 5 2 2 2 2 3 2 2 2 3 3 3 3 4 5 5 5 5 4 4 4 3 2 2 2 1 1 2 2 2 2 2 2 2 2 2 2 3 3 3 4
Wind_Direction
177 184 204 232 232 99 61 57 49 52 53 51 48 43 43 32 19 46 59 56 55 64 73 88 66 62 62 66 71 82 95 106 114 118 127 132 130 128 133 135 139 139 138 140 142 147 148 147 143
173 184 225 241 312 69 64 53 57 54 63 69 67 58 61 60 46 66 76 63 67 72 76 73 65 66 64 66 70 81 85 93 104 119 131 135 133 130 131 131 134 139 141 143 148 148 145 143 142
179 220 261 268 46 50 61 57 64 72 65 47 64 56 49 51 51 54 70 84 82 77 74 78 61 66 66 66 70 77 77 87 96 113 125 134 135 132 132 133 135 141 144 149 151 149 143 142 143
210 223 234 54 65 57 59 66 68 82 77 56 65 80 73 48 42 69 90 88 83 80 77 80 65 61 72 65 68 77 75 81 90 109 117 123 129 131 131 135 138 141 144 151 154 148 145 148 149
240 256 145 77 69 66 66 66 54 60 59 65 66 80 81 64 72 89 97 90 77 76 77 84 73 60 70 76 72 75 75 76 81 99 110 115 121 124 127 132 137 141 143 150 152 151 152 152 148
243 256 57 71 75 75 74 71 66 67 75 79 78 83 79 83 91 93 88 78 76 76 76 89 102 78 68 71 78 80 79 80 89 97 101 105 110 116 121 128 135 141 146 151 150 158 159 155 149
291 358 59 66 80 79 71 69 57 64 71 66 61 79 93 102 103 101 93 84 79 74 69 76 84 96 102 85 82 82 82 81 89 97 100 107 109 116 121 126 129 139 145 149 155 159 159 153 149
295 294 75 69 71 75 81 82 64 53 71 77 58 70 97 115 125 117 105 93 84 77 68 68 72 66 74 91 90 89 94 86 86 93 99 115 130 134 135 135 115 119 128 146 160 162 153 148 145
260 272 65 61 62 82 96 95 85 78 93 91 68 58 89 120 131 123 113 105 91 73 64 54 63 64 62 69 88 98 108 98 96 98 106 135 116 116 130 97 102 110 121 135 155 159 156 158 153
271 46 63 60 59 82 97 81 91 115 106 102 97 93 111 129 130 118 109 99 87 74 68 57 50 49 58 60 73 70 80 83 66 54 61 61 62 57 77 111 119 124 144 154 142 150 165 180 159
19 47 71 89 87 82 97 88 89 104 92 97 111 119 130 134 128 117 97 80 76 79 79 75 67 46 46 60 60 54 54 69 78 69 60 50 42 72 70 95 129 136 147 121 128 149 141 134 121
105 74 79 99 100 102 93 100 95 69 68 88 109 124 134 138 126 112 102 96 91 82 72 60 64 65 42 37 52 54 51 59 63 70 36 50 50 47 59 54 53 72 82 81 81 99 101 104 105
119 101 105 124 130 112 116 108 94 88 93 108 118 130 137 132 123 113 104 103 100 97 84 69 52 58 54 47 25 52 44 45 59 55 54 43 59 58 57 51 40 45 65 86 85 84 89 99 110
75 126 139 144 140 136 137 122 116 106 124 128 135 141 142 138 134 126 121 113 113 103 89 81 75 77 64 61 51 46 53 55 44 54 56 44 59 60 52 61 49 52 55 58 67 84 94 90 90
174 160 151 144 153 150 176 132 105 124 141 143 147 147 147 148 150 148 133 130 119 109 91 91 90 82 81 62 48 60 58 57 55 63 66 55 59 69 63 62 56 54 61 76 84 88 95 108 108
200 204 146 132 163 172 238 102 115 145 159 156 157 157 162 163 169 164 155 160 147 133 121 109 95 101 102 81 32 40 39 46 47 50 64 71 68 70 66 62 55 52 57 73 91 93 90 83 80
197 201 87 123 160 185 238 97 128 160 171 166 168 170 176 171 177 179 179 177 169 159 157 157 123 108 116 115 95 61 49 34 31 42 51 62 69 72 72 72 59 55 74 69 70 85 73 90 80
349 13 76 98 125 197 225 96 134 166 182 177 174 177 185 186 184 182 184 183 176 169 171 172 171 158 173 154 138 111 59 46 37 44 50 45 63 70 58 100 84 56 82 80 68 76 79 57 80
309 309 38 75 90 207 179 116 138 160 183 187 184 184 188 195 180 178 182 183 180 178 182 188 196 177 187 197 224 178 112 67 61 72 68 58 48 56 49 43 89 136 98 92 130 177 141 133 69
259 269 95 107 117 218 151 136 135 167 192 196 193 192 191 188 178 179 185 186 189 188 190 193 197 194 201 184 211 224 342 351 56 39 52 25 21 6 38 38 315 24 133 153 190 234 277 219 167
248 271 290 167 168 195 213 170 152 158 183 190 199 202 200 198 191 182 187 191 192 189 192 190 191 189 198 200 200 183 186 215 128 94 96 50 9 359 15 353 325 310 263 183 240 239 254 282 249
248 297 265 224 231 196 256 249 128 151 172 183 197 202 204 196 195 189 188 192 194 191 183 183 188 191 192 201 206 216 233 272 357 322 58 46 53 292 269 279 296 288 301 312 257 134 284 278 284
300 251 241 243 249 244 220 264 121 143 175 180 189 200 197 190 193 192 189 188 192 188 182 178 182 187 188 197 197 217 230 237 230 244 107 275 161 226 250 244 254 265 283 311 318 311 289 281 297
195 203 208 227 242 243 261 262 144 121 150 159 163 175 183 181 186 188 187 183 190 185 184 179 177 184 185 191 194 212 225 241 263 264 265 259 207 207 235 252 262 255 270 234 242 261 251 285 303
224 236 229 224 225 217 147 246 61 63 58 57 120 165 172 175 180 182 185 187 190 189 186 181 179 186 189 193 195 202 210 218 228 258 254 277 278 252 49 292 265 271 266 251 243 233 263 260 268
234 254 267 277 276 177 177 222 94 86 89 102 127 148 153 164 173 177 180 185 189 187 185 180 180 187 193 196 197 204 213 223 225 238 276 277 291 309 341 283 273 269 263 252 239 243 238 240 256
225 245 283 272 269 270 190 154 150 139 136 129 126 131 138 144 155 165 174 178 184 184 186 186 179 182 188 194 198 199 211 234 248 242 248 268 290 288 287 277 274 274 270 270 257 256 256 248 254
272 254 237 252 268 260 218 213 173 161 182 155 130 112 115 128 142 153 165 176 182 186 185 186 181 180 184 188 201 188 196 214 231 247 268 294 304 309 299 289 284 279 267 250 251 243 234 255 257
197 219 248 261 275 278 264 109 68 149 169 175 137 93 96 118 126 139 146 161 176 181 180 181 183 181 181 185 192 200 192 198 222 229 243 270 284 291 291 294 292 279 268 262 258 264 243 249 252
241 242 238 249 248 273 284 85 96 113 146 144 108 94 88 97 102 111 125 139 161 178 180 176 182 184 185 184 188 192 193 194 223 232 254 271 271 278 283 284 278 271 268 263 265 272 267 259 254